Flag for U.S.A. Weather past 2 weeks in Charleston, West Virginia, U.S.A.

Now
37 °F

Light rain. Fog.


Feels Like: 30 °F
Forecast: 15 / 34 °F
Wind: 10 mph from Northwest

Location: Yeager Airport

Current Time: Mar 4, 2015 at 8:16:13 PM

Latest Report: Mar 4, 2015 at 7:54 PM


Visibility: 2 mi

Pressure: 30.02 "Hg

Humidity: 93%

Dew point: 35 °F

Location of CharlestonLocation

Historic Weather in Charleston — Graph

°F

Charleston temperature yesterday

Maximum temperature yesterday: 63 °F (at 4:54 PM)
Minimum temperature yesterday: 29 °F (at 12:54 AM)
Average temperature yesterday: 45 °F

Past Weeks' High & Low Weather Summary

 TemperatureHumidityPressure
High63 °F (Mar 3, 4:54 PM)100% (Feb 21, 10:54 PM)30.74 "Hg (Feb 21, 10:54 PM)
Low-9 °F (Feb 20, 7:54 AM)30% (Feb 20, 3:54 PM)29.80 "Hg (Feb 26, 3:54 AM)
Average27 °F68%30.22 "Hg
* Reported Feb 17 6:54 PM — Mar 4 6:54 PM, Charleston, Weather by CustomWeather, © 2015

Note: Actual official high and low records may vary slightly from our data, if they occured in-between our weather recording intervals... More about our weather records

Advertising

Charleston weather history for previous 24 hours

 ConditionsComfort  
Time TempWeatherWind HumidityBarometerVisibility
6:54 PM
Wed, Mar 4
39 °FRain. Fog.5 mph89%29.98 "Hg2 mi
5:54 PM40 °FLight rain. Fog.7 mph93%29.96 "Hg2 mi
4:54 PM41 °FLight rain. Fog.8 mph89%29.92 "Hg2 mi
3:54 PM42 °FRain. Fog.5 mph92%29.94 "Hg2 mi
2:54 PM42 °FRain. Fog.7 mph92%29.94 "Hg2 mi
1:54 PM44 °FLight rain. Fog.8 mph93%29.93 "Hg2 mi
12:54 PM48 °FLight rain. Fog.12 mph93%29.91 "Hg2 mi
11:54 AM50 °FRain. Fog.3 mph96%29.89 "Hg2 mi
10:54 AM50 °FLight rain. Fog.No wind93%29.90 "Hg6 mi
9:54 AM50 °FLight rain. More clouds than sun.3 mph89%29.89 "Hg8 mi
8:59 AM49 °FLight rain. Fog.5 mph93%29.92 "Hg6 mi
7:54 AM47 °FLight rain. Fog.No wind93%29.92 "Hg2 mi
7:01 AM47 °FRain. Fog.5 mph97%29.93 "Hg2 mi
6:54 AM48 °FLight rain. Fog.3 mph93%29.93 "Hg2 mi
5:54 AM49 °FLight rain. Fog.3 mph93%29.89 "Hg2 mi
4:54 AM50 °FLight rain. Fog.5 mph89%29.86 "Hg2 mi
3:54 AM52 °FRain. Fog.6 mph93%29.86 "Hg2 mi
2:54 AM53 °FRain. Fog.6 mph93%29.86 "Hg2 mi
1:54 AM53 °FLight rain. Fog.5 mph96%29.83 "Hg4 mi
12:54 AM56 °FLight rain. Fog.5 mph93%29.81 "Hg4 mi
11:54 PM
Tue, Mar 3
58 °FLight rain. Mostly cloudy.8 mph90%29.81 "Hg9 mi
10:54 PM59 °FLight rain. Overcast.12 mph84%29.82 "Hg7 mi
9:54 PM58 °FOvercast.13 mph84%29.83 "Hg10 mi
8:54 PM61 °FOvercast.9 mph72%29.85 "Hg10 mi
Weather by CustomWeather, © 2015

See weather overviewHow to use our weather pages